When you browse on this site, cookies collect data to enhance your experience and personalize the content and advertising you see.
Visit our Privacy Policy to learn more. By continuing to use the site, you agree to this use of cookies and data.
  • In Schweiz
  • Länderverzeichnis
  • Für 7 Tage
  • Wassertemperatur
  • Wetterkarte
  • Widgets
  • user-avatar
    Anmelden

    Stündliche Wetter Siettl

    Heute, 6 Juni, Samstag

    Zeit Temperatur Niederschläge Wind Luftdruck Luftfeuchtigkeit
    00:00 +14°C° 0.1 mm 1 m/S 638 mmHg 81%
    01:00 +14°C° 0.1 mm 2 m/S 638 mmHg 82%
    02:00 +14°C° 0.1 mm 2 m/S 638 mmHg 82%
    03:00 +13°C° 0 mm 2 m/S 638 mmHg 84%
    04:00 +12°C° 0 mm 2 m/S 638 mmHg 85%
    05:00 +12°C° 0 mm 2 m/S 637 mmHg 87%
    06:00 +14°C° 0 mm 2 m/S 638 mmHg 80%
    07:00 +15°C° 0 mm 2 m/S 639 mmHg 73%
    08:00 +17°C° 0 mm 2 m/S 640 mmHg 67%
    09:00 +18°C° 0.1 mm 2 m/S 640 mmHg 62%
    10:00 +19°C° 0.1 mm 2 m/S 640 mmHg 57%
    11:00 +20°C° 0.1 mm 2 m/S 640 mmHg 52%
    12:00 +18°C° 1 mm 2 m/S 639 mmHg 59%
    13:00 +17°C° 1 mm 3 m/S 638 mmHg 67%
    14:00 +14°C° 1 mm 4 m/S 637 mmHg 74%
    15:00 +13°C° 2.9 mm 4 m/S 638 mmHg 79%
    16:00 +12°C° 2.9 mm 3 m/S 638 mmHg 84%
    17:00 +11°C° 2.9 mm 3 m/S 638 mmHg 89%
    18:00 +12°C° 0.4 mm 2 m/S 638 mmHg 86%
    19:00 +12°C° 0.4 mm 2 m/S 638 mmHg 83%
    20:00 +12°C° 0.4 mm 1 m/S 638 mmHg 80%
    21:00 +10°C° 0 mm 2 m/S 638 mmHg 82%
    22:00 +9°C° 0 mm 2 m/S 637 mmHg 84%
    23:00 +8°C° 0 mm 2 m/S 637 mmHg 86%

    Morgen, 7 Juni, Sonntag

    Zeit Temperatur Niederschläge Wind Luftdruck Luftfeuchtigkeit
    00:00 +8°C° 0 mm 3 m/S 637 mmHg 85%
    01:00 +7°C° 0 mm 3 m/S 636 mmHg 84%
    02:00 +5°C° 0 mm 4 m/S 636 mmHg 83%
    03:00 +5°C° 0 mm 4 m/S 636 mmHg 83%
    04:00 +4°C° 0 mm 4 m/S 636 mmHg 82%
    05:00 +3°C° 0 mm 5 m/S 635 mmHg 81%
    06:00 +6°C° 0 mm 4 m/S 636 mmHg 73%
    07:00 +7°C° 0 mm 4 m/S 636 mmHg 66%
    08:00 +10°C° 0 mm 3 m/S 637 mmHg 58%
    09:00 +11°C° 0 mm 3 m/S 637 mmHg 54%
    10:00 +12°C° 0 mm 3 m/S 637 mmHg 50%
    11:00 +13°C° 0 mm 4 m/S 638 mmHg 46%
    12:00 +12°C° 0.2 mm 5 m/S 638 mmHg 49%
    13:00 +10°C° 0.2 mm 7 m/S 637 mmHg 52%
    14:00 +10°C° 0.2 mm 8 m/S 637 mmHg 56%
    15:00 +8°C° 0 mm 9 m/S 638 mmHg 54%
    16:00 +8°C° 0 mm 10 m/S 638 mmHg 52%
    17:00 +8°C° 0 mm 11 m/S 638 mmHg 50%
    18:00 +7°C° 0 mm 10 m/S 638 mmHg 53%
    19:00 +6°C° 0 mm 9 m/S 638 mmHg 56%
    20:00 +5°C° 0 mm 8 m/S 638 mmHg 59%
    21:00 +5°C° 0 mm 8 m/S 638 mmHg 61%
    22:00 +5°C° 0 mm 7 m/S 638 mmHg 62%
    23:00 +5°C° 0 mm 6 m/S 638 mmHg 63%

    übermorgen, 8 Juni, Montag

    Zeit Temperatur Niederschläge Wind Luftdruck Luftfeuchtigkeit
    00:00 +4°C° 0 mm 6 m/S 638 mmHg 64%
    01:00 +4°C° 0 mm 7 m/S 638 mmHg 65%
    02:00 +4°C° 0 mm 7 m/S 638 mmHg 65%
    03:00 +4°C° 0 mm 7 m/S 639 mmHg 63%
    04:00 +4°C° 0 mm 7 m/S 639 mmHg 62%
    05:00 +4°C° 0 mm 8 m/S 639 mmHg 60%
    06:00 +3°C° 0 mm 9 m/S 640 mmHg 58%
    07:00 +4°C° 0 mm 11 m/S 640 mmHg 56%
    08:00 +4°C° 0 mm 12 m/S 641 mmHg 54%
    09:00 +5°C° 0 mm 13 m/S 641 mmHg 52%
    10:00 +7°C° 0 mm 13 m/S 642 mmHg 50%
    11:00 +8°C° 0 mm 13 m/S 642 mmHg 48%
    12:00 +8°C° 0 mm 13 m/S 642 mmHg 48%
    13:00 +9°C° 0 mm 13 m/S 643 mmHg 47%
    14:00 +9°C° 0 mm 13 m/S 643 mmHg 46%
    15:00 +8°C° 0 mm 13 m/S 643 mmHg 48%
    16:00 +8°C° 0 mm 13 m/S 643 mmHg 49%
    17:00 +7°C° 0 mm 13 m/S 643 mmHg 50%
    18:00 +5°C° 0 mm 13 m/S 643 mmHg 52%
    19:00 +5°C° 0 mm 12 m/S 644 mmHg 53%
    20:00 +4°C° 0 mm 12 m/S 644 mmHg 55%
    21:00 +4°C° 0 mm 12 m/S 644 mmHg 55%
    22:00 +4°C° 0 mm 13 m/S 645 mmHg 55%
    23:00 +3°C° 0 mm 13 m/S 645 mmHg 55%

    9 Juni, Dienstag

    Zeit Temperatur Niederschläge Wind Luftdruck Luftfeuchtigkeit
    00:00 +3°C° 0 mm 12 m/S 645 mmHg 55%
    01:00 +3°C° 0 mm 12 m/S 645 mmHg 55%
    02:00 +2°C° 0 mm 11 m/S 645 mmHg 55%
    03:00 +2°C° 0 mm 10 m/S 645 mmHg 56%
    04:00 +2°C° 0 mm 9 m/S 645 mmHg 56%
    05:00 +2°C° 0 mm 7 m/S 645 mmHg 56%
    06:00 +4°C° 0 mm 6 m/S 646 mmHg 53%
    07:00 +5°C° 0 mm 6 m/S 646 mmHg 50%
    08:00 +8°C° 0 mm 5 m/S 646 mmHg 47%
    09:00 +9°C° 0 mm 5 m/S 647 mmHg 45%
    10:00 +10°C° 0 mm 5 m/S 647 mmHg 43%
    11:00 +13°C° 0 mm 6 m/S 647 mmHg 42%
    12:00 +13°C° 0 mm 6 m/S 647 mmHg 42%
    13:00 +14°C° 0 mm 7 m/S 647 mmHg 42%
    14:00 +14°C° 0 mm 7 m/S 647 mmHg 42%
    15:00 +14°C° 0 mm 7 m/S 647 mmHg 43%
    16:00 +13°C° 0 mm 8 m/S 647 mmHg 44%
    17:00 +13°C° 0 mm 8 m/S 647 mmHg 45%
    18:00 +11°C° 0 mm 6 m/S 647 mmHg 50%
    19:00 +10°C° 0 mm 5 m/S 647 mmHg 55%
    20:00 +10°C° 0 mm 3 m/S 646 mmHg 60%
    21:00 +8°C° 0 mm 3 m/S 647 mmHg 64%
    22:00 +7°C° 0 mm 2 m/S 647 mmHg 67%
    23:00 +7°C° 0 mm 1 m/S 648 mmHg 71%

    10 Juni, Mittwoch

    Zeit Temperatur Niederschläge Wind Luftdruck Luftfeuchtigkeit
    00:00 +6°C° 0 mm 1 m/S 648 mmHg 78%
    01:00 +6°C° 0 mm 1 m/S 648 mmHg 85%
    02:00 +5°C° 0 mm 1 m/S 648 mmHg 91%
    03:00 +5°C° 0 mm 1 m/S 649 mmHg 90%
    04:00 +6°C° 0 mm 1 m/S 649 mmHg 88%
    05:00 +6°C° 0 mm 1 m/S 650 mmHg 86%
    06:00 +5°C° 0 mm 2 m/S 650 mmHg 84%
    07:00 +5°C° 0 mm 2 m/S 650 mmHg 83%
    08:00 +6°C° 0 mm 2 m/S 650 mmHg 81%
    09:00 +6°C° 0.1 mm 2 m/S 651 mmHg 79%
    10:00 +7°C° 0.1 mm 2 m/S 651 mmHg 76%
    11:00 +8°C° 0.1 mm 2 m/S 651 mmHg 74%
    12:00 +9°C° 0.1 mm 1 m/S 651 mmHg 74%
    13:00 +10°C° 0.1 mm 1 m/S 651 mmHg 74%
    14:00 +10°C° 0.1 mm 1 m/S 651 mmHg 73%
    15:00 +12°C° 0 mm 1 m/S 651 mmHg 68%
    16:00 +13°C° 0 mm 1 m/S 652 mmHg 63%
    17:00 +14°C° 0 mm 1 m/S 652 mmHg 58%
    18:00 +13°C° 0 mm 1 m/S 652 mmHg 62%
    19:00 +12°C° 0 mm 2 m/S 652 mmHg 67%
    20:00 +12°C° 0 mm 2 m/S 651 mmHg 71%
    21:00 +10°C° 0 mm 1 m/S 651 mmHg 74%
    22:00 +9°C° 0 mm 1 m/S 652 mmHg 78%
    23:00 +8°C° 0 mm 1 m/S 652 mmHg 82%

    11 Juni, Donnerstag

    Zeit Temperatur Niederschläge Wind Luftdruck Luftfeuchtigkeit
    00:00 +7°C° 0 mm 1 m/S 651 mmHg 83%
    01:00 +6°C° 0 mm 1 m/S 651 mmHg 83%
    02:00 +6°C° 0 mm 1 m/S 651 mmHg 84%
    03:00 +5°C° 0 mm 1 m/S 651 mmHg 85%
    04:00 +5°C° 0 mm 1 m/S 651 mmHg 86%
    05:00 +4°C° 0 mm 1 m/S 651 mmHg 87%
    06:00 +6°C° 0 mm 1 m/S 651 mmHg 81%
    07:00 +7°C° 0 mm 2 m/S 652 mmHg 74%
    08:00 +9°C° 0 mm 2 m/S 652 mmHg 68%
    09:00 +10°C° 0 mm 2 m/S 652 mmHg 64%
    10:00 +12°C° 0 mm 3 m/S 653 mmHg 60%
    11:00 +14°C° 0 mm 3 m/S 653 mmHg 56%
    12:00 +14°C° 0 mm 3 m/S 653 mmHg 55%
    13:00 +16°C° 0 mm 3 m/S 653 mmHg 54%
    14:00 +17°C° 0 mm 3 m/S 652 mmHg 53%
    15:00 +17°C° 0 mm 3 m/S 652 mmHg 54%
    16:00 +17°C° 0 mm 3 m/S 652 mmHg 56%
    17:00 +17°C° 0 mm 3 m/S 652 mmHg 57%
    18:00 +16°C° 0 mm 3 m/S 651 mmHg 61%
    19:00 +14°C° 0 mm 3 m/S 651 mmHg 65%
    20:00 +14°C° 0 mm 2 m/S 651 mmHg 69%
    21:00 +13°C° 0 mm 2 m/S 651 mmHg 73%
    22:00 +12°C° 0 mm 1 m/S 651 mmHg 76%
    23:00 +11°C° 0 mm 1 m/S 651 mmHg 80%
    Mehr zeigen